Orbital Elements at Epoch 2459200.5 (2020-Dec-17.0) TDB
Reference: JPL 18 (heliocentric ecliptic J2000)
Element | Value | Uncertainty (1-sigma) | Units |
e | .1222625536732604 | 2.4898e-07 | |
a | 2.523129612460354 | 1.1961e-08 | au |
q | 2.214645342792328 | 6.3344e-07 | au |
i | 1.07727288548289 | 6.0818e-06 | deg |
node | 153.3221696468476 | 0.00046643 | deg |
peri | 286.8080499164361 | 0.00048835 | deg |
M | 70.48790357994221 | 0.00014604 | deg |
tp | 2458913.871176359894 (2020-Mar-05.37117636) | 0.00059276 | TDB |
period | 1463.887720726602 4.01 | 1.041e-05 2.85e-08 | d yr |
n | .2459204998463363 | 1.7488e-09 | deg/d |
Q | 2.831613882128381 | 1.3424e-08 | au |
|
| | Orbit Determination Parameters
Additional Information
|